| time (UTC) | temp C | wind direction | speed KPH | gust KPH | rain 1hr cm | rain 24hr cm | rain mn cm | humidity % | barometer mb |
| 20260506175716 | 19 | 354 | 3.2 | 8.0 | 0.00 | 0.00 | 0.00 | 65 | 1020.0 |
| 20260506175210 | 19 | 195 | 3.2 | 9.7 | 0.00 | 0.00 | 0.00 | 66 | 1020.0 |
| 20260506174704 | 18 | 203 | 1.6 | 9.7 | 0.00 | 0.00 | 0.00 | 66 | 1020.0 |
| 20260506174157 | 18 | 217 | 1.6 | 6.4 | 0.00 | 0.00 | 0.00 | 66 | 1020.0 |
| 20260506173651 | 18 | 100 | 3.2 | 9.7 | 0.00 | 0.00 | 0.00 | 67 | 1020.0 |
| 20260506173145 | 18 | 104 | 3.2 | 9.7 | 0.00 | 0.03 | 0.00 | 69 | 1020.0 |
| 20260506172707 | 18 | 166 | 1.6 | 9.7 | 0.00 | 0.03 | 0.00 | 70 | 1020.1 |
| 20260506172655 | 18 | 195 | 3.2 | 9.7 | 0.00 | 0.03 | 0.00 | 69 | 1020.1 |
| 20260506171627 | 17 | 137 | 1.6 | 6.4 | 0.00 | 0.03 | 0.00 | 68 | 1020.2 |
| 20260506171121 | 17 | 136 | 1.6 | 6.4 | 0.00 | 0.03 | 0.00 | 70 | 1020.2 |
| 20260506170615 | 17 | 152 | 1.6 | 6.4 | 0.00 | 0.03 | 0.00 | 72 | 1020.3 |
| 20260506170109 | 17 | 317 | 1.6 | 4.8 | 0.00 | 0.03 | 0.00 | 72 | 1020.3 |
| 20260506165603 | 17 | 127 | 0.0 | 3.2 | 0.00 | 0.03 | 0.00 | 71 | 1020.3 |
| 20260506165057 | 16 | 38 | 1.6 | 6.4 | 0.00 | 0.03 | 0.00 | 72 | 1020.3 |
| 20260506164551 | 16 | 38 | 1.6 | 6.4 | 0.00 | 0.03 | 0.00 | 72 | 1020.3 |
| 20260506164045 | 16 | 176 | 1.6 | 8.0 | 0.00 | 0.03 | 0.00 | 74 | 1020.3 |
| 20260506163539 | 16 | 176 | 3.2 | 8.0 | 0.00 | 0.03 | 0.00 | 74 | 1020.3 |
| 20260506163034 | 16 | 245 | 1.6 | 8.0 | 0.00 | 0.03 | 0.00 | 75 | 1020.4 |
| 20260506162812 | 16 | 245 | 0.0 | 4.8 | 0.00 | 0.03 | 0.00 | 76 | 1020.4 |
| 20260506162021 | 15 | 244 | 1.6 | 4.8 | 0.00 | 0.03 | 0.00 | 77 | 1020.4 |
| 20260506161801 | 15 | 244 | 1.6 | 4.8 | 0.00 | 0.03 | 0.00 | 76 | 1020.4 |
| 20260506161010 | 15 | 245 | 1.6 | 4.8 | 0.00 | 0.03 | 0.00 | 77 | 1020.4 |
| 20260506160503 | 15 | 244 | 0.0 | 3.2 | 0.00 | 0.03 | 0.00 | 79 | 1020.4 |
| 20260506155958 | 14 | 245 | 0.0 | 4.8 | 0.00 | 0.03 | 0.00 | 79 | 1020.4 |
| 20260506155451 | 14 | 245 | 0.0 | 4.8 | 0.00 | 0.03 | 0.00 | 80 | 1020.5 |
| 20260506154946 | 13 | 245 | 0.0 | 3.2 | 0.00 | 0.03 | 0.00 | 80 | 1020.5 |
| 20260506154439 | 13 | 245 | 1.6 | 8.0 | 0.00 | 0.03 | 0.00 | 80 | 1020.5 |
| 20260506153934 | 13 | 244 | 3.2 | 8.0 | 0.00 | 0.03 | 0.00 | 80 | 1020.5 |
| 20260506153427 | 13 | 245 | 1.6 | 4.8 | 0.00 | 0.03 | 0.00 | 80 | 1020.5 |
| 20260506152922 | 13 | 245 | 0.0 | 4.8 | 0.00 | 0.03 | 0.00 | 80 | 1020.6 |
| 20260506152416 | 13 | 244 | 0.0 | 0.0 | 0.00 | 0.03 | 0.00 | 81 | 1020.5 |
| 20260506151910 | 13 | 244 | 0.0 | 4.8 | 0.00 | 0.03 | 0.00 | 81 | 1020.6 |
| 20260506151403 | 13 | 245 | 0.0 | 4.8 | 0.00 | 0.03 | 0.00 | 81 | 1020.6 |
| 20260506151142 | 13 | 245 | 0.0 | 6.4 | 0.00 | 0.03 | 0.00 | 81 | 1020.6 |
| 20260506150351 | 13 | 245 | 0.0 | 6.4 | 0.00 | 0.03 | 0.00 | 82 | 1020.5 |
| 20260506145846 | 13 | 245 | 0.0 | 3.2 | 0.00 | 0.03 | 0.00 | 81 | 1020.6 |
| 20260506145346 | 13 | 245 | 0.0 | 3.2 | 0.00 | 0.03 | 0.00 | 82 | 1020.5 |
| 20260506144846 | 13 | 245 | 1.6 | 4.8 | 0.00 | 0.03 | 0.00 | 82 | 1020.6 |
| 20260506144710 | 13 | 244 | 0.0 | 3.2 | 0.00 | 0.03 | 0.00 | 83 | 1020.4 |
| 20260506144412 | 13 | 244 | 0.0 | 4.8 | 0.00 | 0.03 | 0.00 | 83 | 1020.5 |
| 20260506143630 | 13 | 245 | 0.0 | 3.2 | 0.00 | 0.03 | 0.00 | 83 | 1020.3 |
| 20260506143128 | 13 | 245 | 0.0 | 3.2 | 0.00 | 0.03 | 0.00 | 83 | 1020.3 |
| 20260506142345 | 12 | 245 | 0.0 | 1.6 | 0.00 | 0.03 | 0.00 | 84 | 1020.3 |
| 20260506141844 | 12 | 245 | 1.6 | 6.4 | 0.00 | 0.03 | 0.00 | 84 | 1020.2 |
| 20260506141629 | 12 | 245 | 1.6 | 6.4 | 0.00 | 0.03 | 0.00 | 85 | 1020.2 |
| 20260506140845 | 12 | 245 | 0.0 | 4.8 | 0.00 | 0.03 | 0.00 | 86 | 1020.1 |
| 20260506140345 | 12 | 245 | 0.0 | 3.2 | 0.00 | 0.03 | 0.00 | 86 | 1020.1 |
| 20260506135842 | 12 | 245 | 0.0 | 3.2 | 0.00 | 0.03 | 0.00 | 86 | 1020.0 |
| 20260506135343 | 12 | 164 | 0.0 | 1.6 | 0.00 | 0.03 | 0.00 | 87 | 1020.0 |
| 20260506135127 | 12 | 267 | 0.0 | 0.0 | 0.00 | 0.03 | 0.00 | 87 | 1019.9 |
| 20260506134340 | 12 | 267 | 0.0 | 0.0 | 0.00 | 0.03 | 0.00 | 87 | 1019.9 |
| 20260506133841 | 12 | 267 | 0.0 | 0.0 | 0.00 | 0.03 | 0.00 | 87 | 1019.8 |
| 20260506133343 | 12 | 266 | 0.0 | 0.0 | 0.00 | 0.03 | 0.00 | 88 | 1019.8 |
| 20260506132837 | 12 | 267 | 0.0 | 0.0 | 0.00 | 0.03 | 0.00 | 88 | 1019.8 |
| 20260506132618 | 12 | 268 | 0.0 | 0.0 | 0.00 | 0.03 | 0.00 | 88 | 1019.8 |
| 20260506131825 | 12 | 267 | 0.0 | 0.0 | 0.00 | 0.03 | 0.00 | 88 | 1019.7 |
| 20260506131319 | 12 | 267 | 0.0 | 0.0 | 0.00 | 0.03 | 0.00 | 88 | 1019.7 |
| 20260506130813 | 12 | 268 | 0.0 | 0.0 | 0.00 | 0.03 | 0.00 | 88 | 1019.6 |
| 20260506130307 | 12 | 268 | 0.0 | 0.0 | 0.00 | 0.03 | 0.00 | 88 | 1019.6 |
| 20260506125801 | 12 | 268 | 0.0 | 0.0 | 0.00 | 0.03 | 0.00 | 88 | 1019.5 |
| 20260506125254 | 12 | 267 | 0.0 | 0.0 | 0.00 | 0.03 | 0.00 | 88 | 1019.5 |
| 20260506124748 | 12 | 268 | 0.0 | 0.0 | 0.00 | 0.03 | 0.00 | 88 | 1019.5 |
| 20260506124242 | 12 | 268 | 0.0 | 0.0 | 0.00 | 0.03 | 0.00 | 88 | 1019.5 |
| 20260506123737 | 12 | 267 | 0.0 | 0.0 | 0.00 | 0.03 | 0.00 | 88 | 1019.5 |
| 20260506123238 | 12 | 267 | 0.0 | 0.0 | 0.00 | 0.03 | 0.00 | 88 | 1019.4 |
| 20260506122738 | 12 | 267 | 0.0 | 0.0 | 0.00 | 0.03 | 0.00 | 88 | 1019.4 |
| 20260506122238 | 12 | 268 | 0.0 | 0.0 | 0.00 | 0.03 | 0.00 | 88 | 1019.4 |
| 20260506122038 | 12 | 267 | 0.0 | 0.0 | 0.00 | 0.03 | 0.00 | 88 | 1019.3 |
| 20260506121237 | 12 | 268 | 0.0 | 0.0 | 0.00 | 0.03 | 0.00 | 88 | 1019.3 |
| 20260506120736 | 11 | 268 | 0.0 | 0.0 | 0.00 | 0.03 | 0.00 | 88 | 1019.3 |
| 20260506120236 | 11 | 267 | 0.0 | 0.0 | 0.00 | 0.03 | 0.00 | 88 | 1019.3 |
| 20260506115738 | 11 | 268 | 0.0 | 0.0 | 0.00 | 0.03 | 0.00 | 88 | 1019.3 |
| 20260506115237 | 11 | 267 | 0.0 | 0.0 | 0.00 | 0.03 | 0.00 | 88 | 1019.3 |
| 20260506114738 | 11 | 267 | 0.0 | 0.0 | 0.00 | 0.03 | 0.00 | 88 | 1019.3 |
| 20260506114237 | 11 | 267 | 0.0 | 0.0 | 0.00 | 0.03 | 0.00 | 88 | 1019.3 |
| 20260506114020 | 11 | 267 | 0.0 | 0.0 | 0.00 | 0.03 | 0.00 | 89 | 1019.3 |
| 20260506113313 | 11 | 267 | 0.0 | 0.0 | 0.00 | 0.03 | 0.00 | 89 | 1019.2 |
| 20260506113300 | 11 | 267 | 0.0 | 0.0 | 0.00 | 0.03 | 0.00 | 88 | 1019.2 |
| 20260506112236 | 11 | 267 | 0.0 | 0.0 | 0.00 | 0.05 | 0.00 | 89 | 1019.2 |
| 20260506111737 | 11 | 268 | 0.0 | 0.0 | 0.00 | 0.05 | 0.00 | 89 | 1019.1 |
| 20260506111237 | 11 | 267 | 0.0 | 0.0 | 0.00 | 0.05 | 0.00 | 89 | 1019.0 |
| 20260506110731 | 11 | 268 | 0.0 | 0.0 | 0.00 | 0.05 | 0.00 | 89 | 1018.9 |
| 20260506110224 | 11 | 267 | 0.0 | 0.0 | 0.00 | 0.05 | 0.00 | 89 | 1018.9 |
| 20260506105719 | 11 | 267 | 0.0 | 0.0 | 0.00 | 0.05 | 0.00 | 89 | 1018.9 |
| 20260506105213 | 11 | 268 | 0.0 | 0.0 | 0.00 | 0.05 | 0.00 | 89 | 1018.9 |
| 20260506104706 | 11 | 267 | 0.0 | 0.0 | 0.00 | 0.05 | 0.00 | 89 | 1018.9 |
| 20260506104200 | 11 | 267 | 0.0 | 0.0 | 0.00 | 0.05 | 0.00 | 89 | 1018.9 |
| 20260506103654 | 11 | 267 | 0.0 | 0.0 | 0.00 | 0.05 | 0.00 | 89 | 1018.8 |
| 20260506103148 | 11 | 268 | 0.0 | 0.0 | 0.00 | 0.05 | 0.00 | 89 | 1018.7 |
| 20260506102643 | 11 | 268 | 0.0 | 0.0 | 0.00 | 0.05 | 0.00 | 89 | 1018.8 |
| 20260506102137 | 11 | 268 | 0.0 | 0.0 | 0.00 | 0.05 | 0.00 | 90 | 1018.8 |
| 20260506101659 | 11 | 268 | 0.0 | 0.0 | 0.00 | 0.08 | 0.00 | 90 | 1018.8 |
| 20260506101647 | 11 | 267 | 0.0 | 0.0 | 0.00 | 0.05 | 0.00 | 90 | 1018.8 |
| 20260506100619 | 11 | 267 | 0.0 | 0.0 | 0.00 | 0.08 | 0.00 | 90 | 1018.8 |
| 20260506100125 | 11 | 268 | 0.0 | 0.0 | 0.00 | 0.08 | 0.00 | 90 | 1018.9 |
| 20260506095607 | 11 | 267 | 0.0 | 0.0 | 0.00 | 0.10 | 0.00 | 90 | 1018.8 |
| 20260506095101 | 10 | 268 | 0.0 | 0.0 | 0.00 | 0.10 | 0.00 | 90 | 1018.8 |
| 20260506094554 | 10 | 267 | 0.0 | 0.0 | 0.00 | 0.10 | 0.00 | 90 | 1018.7 |
| 20260506094048 | 10 | 267 | 0.0 | 3.2 | 0.00 | 0.10 | 0.00 | 89 | 1018.7 |
| 20260506093542 | 10 | 268 | 0.0 | 3.2 | 0.00 | 0.10 | 0.00 | 89 | 1018.6 |
| 20260506093036 | 10 | 266 | 0.0 | 0.0 | 0.00 | 0.10 | 0.00 | 90 | 1018.7 |
| 20260506092819 | 10 | 267 | 0.0 | 0.0 | 0.00 | 0.10 | 0.00 | 90 | 1018.8 |
| 20260506092024 | 10 | 267 | 0.0 | 0.0 | 0.00 | 0.10 | 0.00 | 89 | 1018.7 |
| 20260506091518 | 10 | 267 | 0.0 | 0.0 | 0.00 | 0.10 | 0.00 | 89 | 1018.7 |
| 20260506091013 | 10 | 267 | 0.0 | 0.0 | 0.00 | 0.10 | 0.00 | 89 | 1018.6 |
| 20260506090506 | 10 | 268 | 0.0 | 0.0 | 0.00 | 0.10 | 0.00 | 90 | 1018.7 |
| 20260506090000 | 10 | 268 | 0.0 | 0.0 | 0.00 | 0.10 | 0.00 | 89 | 1018.8 |
| 20260506085455 | 10 | 268 | 0.0 | 0.0 | 0.00 | 0.10 | 0.00 | 89 | 1018.8 |
| 20260506085235 | 10 | 267 | 0.0 | 0.0 | 0.00 | 0.10 | 0.00 | 89 | 1018.6 |
| 20260506084442 | 10 | 268 | 0.0 | 0.0 | 0.00 | 0.10 | 0.00 | 89 | 1018.7 |
| 20260506083937 | 10 | 268 | 0.0 | 0.0 | 0.00 | 0.10 | 0.00 | 88 | 1018.7 |
| 20260506083431 | 10 | 268 | 0.0 | 0.0 | 0.00 | 0.10 | 0.00 | 88 | 1018.8 |
| 20260506082925 | 10 | 267 | 0.0 | 0.0 | 0.00 | 0.10 | 0.00 | 88 | 1018.9 |
| 20260506082418 | 10 | 268 | 0.0 | 0.0 | 0.00 | 0.10 | 0.00 | 88 | 1018.9 |
| 20260506081912 | 10 | 267 | 0.0 | 0.0 | 0.00 | 0.10 | 0.00 | 87 | 1018.8 |
| 20260506081406 | 11 | 267 | 0.0 | 0.0 | 0.00 | 0.10 | 0.00 | 87 | 1018.9 |
| 20260506080901 | 11 | 268 | 0.0 | 0.0 | 0.00 | 0.10 | 0.00 | 87 | 1018.9 |
| 20260506080355 | 11 | 267 | 0.0 | 0.0 | 0.00 | 0.10 | 0.00 | 87 | 1018.9 |
| 20260506080134 | 11 | 267 | 0.0 | 0.0 | 0.00 | 0.10 | 0.00 | 87 | 1018.8 |
| 20260506073318 | 11 | 268 | 0.0 | 0.0 | 0.00 | 0.10 | 0.00 | 85 | 1018.6 |
| 20260506072812 | 11 | 267 | 0.0 | 0.0 | 0.00 | 0.10 | 0.00 | 85 | 1018.4 |
| 20260506072306 | 12 | 267 | 0.0 | 0.0 | 0.00 | 0.10 | 0.00 | 85 | 1018.4 |
| 20260506071800 | 12 | 268 | 0.0 | 0.0 | 0.00 | 0.10 | 0.00 | 84 | 1018.4 |
| 20260506071254 | 12 | 267 | 0.0 | 0.0 | 0.00 | 0.10 | 0.00 | 84 | 1018.3 |
| 20260506070748 | 12 | 268 | 0.0 | 9.7 | 0.00 | 0.10 | 0.00 | 84 | 1018.3 |
| 20260506070243 | 12 | 267 | 0.0 | 9.7 | 0.00 | 0.10 | 0.00 | 84 | 1018.2 |
| 20260506062510 | 12 | 190 | 0.0 | 9.7 | 0.00 | 0.10 | 0.10 | 82 | 1017.9 |
| 20260506062505 | 12 | 274 | 1.6 | 9.7 | 0.00 | 0.10 | 0.10 | 82 | 1017.9 |
| 20260506061144 | 12 | 204 | 0.0 | 0.0 | 0.00 | 0.10 | 0.10 | 82 | 1017.9 |
| 20260506060650 | 12 | 204 | 0.0 | 0.0 | 0.00 | 0.10 | 0.10 | 82 | 1017.9 |
| 20260506060131 | 13 | 204 | 0.0 | 0.0 | 0.00 | 0.10 | 0.10 | 81 | 1017.9 |
| 20260506051032 | 13 | 253 | 3.2 | 12.9 | 0.00 | 0.10 | 0.10 | 80 | 1017.5 |
| 20260506050526 | 13 | 243 | 3.2 | 12.9 | 0.00 | 0.10 | 0.10 | 79 | 1017.5 |
| 20260506045008 | 13 | 234 | 3.2 | 11.3 | 0.00 | 0.10 | 0.10 | 79 | 1017.4 |
| 20260506044501 | 13 | 233 | 3.2 | 9.7 | 0.00 | 0.10 | 0.10 | 79 | 1017.3 |
| 20260506043955 | 13 | 241 | 3.2 | 11.3 | 0.00 | 0.10 | 0.10 | 79 | 1017.1 |
| 20260506043450 | 13 | 267 | 3.2 | 11.3 | 0.00 | 0.10 | 0.10 | 79 | 1017.1 |
| 20260506043230 | 13 | 240 | 3.2 | 11.3 | 0.00 | 0.10 | 0.10 | 79 | 1017.0 |
| 20260506042441 | 13 | 239 | 1.6 | 11.3 | 0.00 | 0.10 | 0.10 | 79 | 1016.9 |
| 20260506041940 | 13 | 239 | 1.6 | 11.3 | 0.00 | 0.10 | 0.10 | 79 | 1016.8 |
| 20260506041440 | 13 | 239 | 1.6 | 11.3 | 0.00 | 0.10 | 0.10 | 78 | 1016.8 |
| 20260506040936 | 13 | 239 | 3.2 | 14.5 | 0.00 | 0.10 | 0.10 | 78 | 1016.8 |
| 20260506040434 | 13 | 240 | 3.2 | 14.5 | 0.00 | 0.10 | 0.10 | 78 | 1016.8 |
| 20260506035934 | 13 | 243 | 4.8 | 14.5 | 0.00 | 0.10 | 0.10 | 78 | 1016.7 |
| 20260506035604 | 14 | 237 | 3.2 | 14.5 | 0.00 | 0.10 | 0.10 | 77 | 1016.6 |
| 20260506035537 | 13 | 252 | 4.8 | 14.5 | 0.00 | 0.10 | 0.10 | 78 | 1016.6 |
| 20260506035306 | 13 | 267 | 3.2 | 14.5 | 0.00 | 0.10 | 0.10 | 78 | 1016.6 |
| 20260506033932 | 14 | 264 | 3.2 | 12.9 | 0.00 | 0.10 | 0.10 | 77 | 1016.5 |
| 20260506033720 | 14 | 206 | 4.8 | 12.9 | 0.00 | 0.10 | 0.10 | 77 | 1016.3 |
| 20260506033218 | 14 | 214 | 3.2 | 11.3 | 0.00 | 0.10 | 0.10 | 77 | 1016.3 |
| 20260506032432 | 14 | 239 | 1.6 | 11.3 | 0.00 | 0.10 | 0.10 | 77 | 1016.3 |
| 20260506031934 | 14 | 239 | 1.6 | 11.3 | 0.00 | 0.10 | 0.10 | 76 | 1016.2 |
| 20260506031431 | 14 | 239 | 3.2 | 9.7 | 0.00 | 0.10 | 0.10 | 76 | 1016.1 |
| 20260506030930 | 14 | 205 | 4.8 | 14.5 | 0.00 | 0.10 | 0.10 | 76 | 1016.0 |
| 20260506030428 | 14 | 204 | 4.8 | 14.5 | 0.00 | 0.10 | 0.10 | 76 | 1016.0 |
| 20260506025930 | 14 | 211 | 4.8 | 11.3 | 0.00 | 0.10 | 0.10 | 76 | 1015.9 |
| 20260506025430 | 14 | 214 | 4.8 | 11.3 | 0.00 | 0.10 | 0.10 | 76 | 1015.8 |
| 20260506024927 | 14 | 228 | 4.8 | 17.7 | 0.00 | 0.10 | 0.10 | 76 | 1015.8 |
| 20260506024427 | 14 | 240 | 6.4 | 19.3 | 0.00 | 0.10 | 0.10 | 75 | 1015.8 |
| 20260506023928 | 14 | 246 | 4.8 | 19.3 | 0.00 | 0.10 | 0.10 | 75 | 1015.7 |
| 20260506023427 | 15 | 203 | 4.8 | 19.3 | 0.00 | 0.10 | 0.10 | 75 | 1015.7 |
| 20260506022928 | 15 | 224 | 6.4 | 19.3 | 0.00 | 0.10 | 0.10 | 75 | 1015.7 |
| 20260506022429 | 15 | 214 | 6.4 | 14.5 | 0.00 | 0.10 | 0.10 | 75 | 1015.6 |
| 20260506021927 | 15 | 199 | 4.8 | 14.5 | 0.00 | 0.10 | 0.10 | 74 | 1015.6 |
| 20260506021427 | 15 | 218 | 3.2 | 12.9 | 0.00 | 0.10 | 0.10 | 74 | 1015.5 |
| 20260506020927 | 15 | 245 | 4.8 | 14.5 | 0.00 | 0.10 | 0.10 | 74 | 1015.4 |
| 20260506020428 | 15 | 231 | 6.4 | 14.5 | 0.00 | 0.10 | 0.10 | 73 | 1015.4 |
| 20260506015926 | 15 | 237 | 6.4 | 16.1 | 0.00 | 0.10 | 0.10 | 73 | 1015.4 |
| 20260506015426 | 15 | 256 | 4.8 | 16.1 | 0.00 | 0.10 | 0.10 | 73 | 1015.3 |
| 20260506014926 | 15 | 292 | 4.8 | 12.9 | 0.00 | 0.10 | 0.10 | 73 | 1015.3 |
| 20260506014714 | 15 | 232 | 8.0 | 20.9 | 0.00 | 0.10 | 0.10 | 72 | 1015.2 |
| 20260506013925 | 15 | 214 | 9.7 | 24.1 | 0.00 | 0.10 | 0.10 | 72 | 1015.2 |
| 20260506013425 | 15 | 212 | 11.3 | 24.1 | 0.00 | 0.10 | 0.10 | 72 | 1015.2 |
| 20260506012924 | 15 | 198 | 9.7 | 24.1 | 0.00 | 0.10 | 0.10 | 72 | 1015.2 |
| 20260506012425 | 15 | 201 | 9.7 | 20.9 | 0.00 | 0.10 | 0.10 | 72 | 1015.2 |
| 20260506011924 | 15 | 202 | 8.0 | 20.9 | 0.00 | 0.10 | 0.10 | 72 | 1015.3 |
| 20260506011425 | 15 | 188 | 8.0 | 19.3 | 0.00 | 0.10 | 0.10 | 72 | 1015.4 |
| 20260506010924 | 15 | 253 | 9.7 | 17.7 | 0.00 | 0.10 | 0.10 | 72 | 1015.4 |
| 20260506010425 | 15 | 203 | 8.0 | 16.1 | 0.00 | 0.10 | 0.10 | 72 | 1015.3 |
| 20260506005924 | 15 | 199 | 8.0 | 20.9 | 0.00 | 0.10 | 0.10 | 72 | 1015.4 |
| 20260506005713 | 15 | 215 | 9.7 | 20.9 | 0.00 | 0.10 | 0.10 | 71 | 1015.3 |
| 20260506004924 | 15 | 256 | 8.0 | 17.7 | 0.00 | 0.10 | 0.10 | 71 | 1015.2 |
| 20260506004424 | 15 | 214 | 8.0 | 17.7 | 0.00 | 0.10 | 0.10 | 71 | 1015.2 |
| 20260506003924 | 16 | 203 | 9.7 | 17.7 | 0.00 | 0.10 | 0.10 | 71 | 1015.2 |
| 20260506003424 | 16 | 265 | 9.7 | 17.7 | 0.00 | 0.10 | 0.10 | 71 | 1015.2 |
| 20260506003214 | 16 | 263 | 8.0 | 24.1 | 0.00 | 0.10 | 0.10 | 71 | 1015.1 |
| 20260506002424 | 16 | 253 | 9.7 | 24.1 | 0.00 | 0.10 | 0.10 | 71 | 1015.1 |
| 20260506001924 | 16 | 245 | 9.7 | 20.9 | 0.00 | 0.10 | 0.10 | 71 | 1015.1 |
| 20260506001425 | 16 | 193 | 9.7 | 16.1 | 0.00 | 0.10 | 0.10 | 70 | 1015.1 |
| 20260506000927 | 16 | 249 | 8.0 | 19.3 | 0.00 | 0.10 | 0.10 | 70 | 1015.1 |
| 20260505235919 | 16 | 225 | 6.4 | 17.7 | 0.00 | 0.10 | 0.10 | 70 | 1015.0 |
| 20260505235412 | 16 | 204 | 8.0 | 17.7 | 0.00 | 0.10 | 0.10 | 70 | 1015.0 |
| 20260505235151 | 16 | 229 | 8.0 | 17.7 | 0.00 | 0.10 | 0.10 | 70 | 1014.9 |
| 20260505234400 | 16 | 237 | 8.0 | 19.3 | 0.00 | 0.10 | 0.10 | 70 | 1015.0 |
| 20260505233854 | 16 | 278 | 8.0 | 20.9 | 0.00 | 0.10 | 0.10 | 70 | 1015.0 |
| 20260505233349 | 16 | 216 | 4.8 | 16.1 | 0.00 | 0.10 | 0.10 | 70 | 1015.1 |
| 20260505232842 | 16 | 226 | 8.0 | 16.1 | 0.00 | 0.10 | 0.10 | 71 | 1015.2 |
| 20260505232335 | 16 | 216 | 11.3 | 20.9 | 0.00 | 0.10 | 0.10 | 71 | 1015.1 |
| 20260505231830 | 16 | 215 | 9.7 | 20.9 | 0.00 | 0.10 | 0.10 | 70 | 1015.1 |
| 20260505231324 | 16 | 210 | 9.7 | 19.3 | 0.00 | 0.10 | 0.10 | 71 | 1015.2 |
| 20260505230819 | 16 | 219 | 9.7 | 19.3 | 0.00 | 0.10 | 0.10 | 71 | 1015.2 |
| 20260505230345 | 16 | 199 | 8.0 | 17.7 | 0.00 | 0.10 | 0.10 | 71 | 1015.2 |
| 20260505230332 | 16 | 223 | 8.0 | 17.7 | 0.00 | 0.10 | 0.10 | 70 | 1015.2 |
| 20260505225300 | 16 | 242 | 9.7 | 22.5 | 0.00 | 0.10 | 0.10 | 70 | 1015.2 |
| 20260505224753 | 16 | 239 | 9.7 | 22.5 | 0.00 | 0.10 | 0.10 | 70 | 1015.1 |
| 20260505224248 | 16 | 212 | 9.7 | 19.3 | 0.00 | 0.10 | 0.10 | 70 | 1015.1 |
| 20260505224028 | 16 | 222 | 9.7 | 19.3 | 0.00 | 0.10 | 0.10 | 69 | 1015.2 |
| 20260505223236 | 16 | 219 | 9.7 | 20.9 | 0.00 | 0.10 | 0.10 | 71 | 1015.2 |
| 20260505222729 | 16 | 240 | 12.9 | 22.5 | 0.00 | 0.10 | 0.10 | 71 | 1015.3 |
| 20260505222223 | 16 | 190 | 12.9 | 22.5 | 0.00 | 0.10 | 0.10 | 70 | 1015.3 |
| 20260505221717 | 16 | 196 | 11.3 | 19.3 | 0.00 | 0.10 | 0.10 | 71 | 1015.3 |
| 20260505221212 | 16 | 197 | 8.0 | 19.3 | 0.00 | 0.10 | 0.10 | 71 | 1015.3 |
| 20260505221023 | 16 | 262 | 9.7 | 20.9 | 0.00 | 0.10 | 0.10 | 73 | 1015.4 |
| 20260505220725 | 16 | 256 | 8.0 | 20.9 | 0.00 | 0.10 | 0.10 | 73 | 1015.4 |
| 20260505215654 | 16 | 231 | 8.0 | 19.3 | 0.00 | 0.10 | 0.10 | 72 | 1015.5 |
| 20260505215149 | 16 | 225 | 9.7 | 25.7 | 0.00 | 0.10 | 0.10 | 73 | 1015.5 |
| 20260505214929 | 16 | 218 | 9.7 | 25.7 | 0.00 | 0.10 | 0.10 | 73 | 1015.5 |
| 20260505214422 | 15 | 222 | 8.0 | 19.3 | 0.00 | 0.10 | 0.10 | 74 | 1015.5 |
| 20260505213630 | 15 | 217 | 9.7 | 17.7 | 0.00 | 0.10 | 0.10 | 74 | 1015.6 |
| 20260505213124 | 15 | 257 | 11.3 | 22.5 | 0.00 | 0.10 | 0.10 | 74 | 1015.6 |
| 20260505212905 | 15 | 213 | 9.7 | 22.5 | 0.00 | 0.10 | 0.10 | 75 | 1015.7 |
| 20260505212113 | 15 | 235 | 6.4 | 16.1 | 0.00 | 0.10 | 0.10 | 75 | 1015.6 |
| 20260505211619 | 15 | 218 | 8.0 | 17.7 | 0.00 | 0.10 | 0.10 | 75 | 1015.7 |
| 20260505211100 | 15 | 193 | 9.7 | 19.3 | 0.00 | 0.10 | 0.10 | 74 | 1015.7 |
| 20260505210554 | 15 | 214 | 9.7 | 19.3 | 0.00 | 0.10 | 0.10 | 75 | 1015.7 |
| 20260505210352 | 15 | 214 | 11.3 | 19.3 | 0.00 | 0.10 | 0.10 | 75 | 1015.7 |
| 20260505205542 | 15 | 242 | 11.3 | 17.7 | 0.00 | 0.10 | 0.10 | 76 | 1015.6 |
| 20260505205036 | 15 | 224 | 8.0 | 17.7 | 0.00 | 0.10 | 0.10 | 76 | 1015.6 |
| 20260505204530 | 15 | 200 | 6.4 | 16.1 | 0.00 | 0.10 | 0.10 | 76 | 1015.6 |
| 20260505204024 | 15 | 210 | 8.0 | 20.9 | 0.00 | 0.10 | 0.10 | 76 | 1015.7 |
| 20260505203517 | 15 | 237 | 8.0 | 20.9 | 0.00 | 0.10 | 0.10 | 76 | 1015.8 |
| 20260505203011 | 15 | 210 | 8.0 | 16.1 | 0.00 | 0.10 | 0.10 | 76 | 1015.7 |
| 20260505202753 | 15 | 237 | 8.0 | 17.7 | 0.00 | 0.10 | 0.10 | 76 | 1015.7 |
| 20260505202000 | 15 | 251 | 6.4 | 17.7 | 0.00 | 0.10 | 0.10 | 76 | 1015.7 |
| 20260505201454 | 15 | 212 | 6.4 | 16.1 | 0.00 | 0.10 | 0.10 | 76 | 1015.7 |
| 20260505200948 | 15 | 195 | 8.0 | 16.1 | 0.00 | 0.10 | 0.10 | 76 | 1015.7 |
| 20260505200442 | 15 | 201 | 8.0 | 16.1 | 0.00 | 0.10 | 0.10 | 77 | 1015.8 |
| 20260505195936 | 15 | 211 | 6.4 | 12.9 | 0.00 | 0.10 | 0.10 | 79 | 1015.8 |
| 20260505194923 | 15 | 234 | 4.8 | 16.1 | 0.00 | 0.10 | 0.10 | 81 | 1015.9 |
| 20260505194420 | 14 | 240 | 6.4 | 16.1 | 0.00 | 0.10 | 0.10 | 80 | 1015.9 |
| 20260505193919 | 14 | 256 | 6.4 | 19.3 | 0.00 | 0.10 | 0.10 | 81 | 1015.9 |
| 20260505193703 | 14 | 238 | 8.0 | 19.3 | 0.00 | 0.10 | 0.10 | 81 | 1015.8 |
| 20260505192917 | 14 | 210 | 6.4 | 16.1 | 0.00 | 0.10 | 0.10 | 81 | 1015.7 |
| 20260505192418 | 14 | 224 | 4.8 | 16.1 | 0.00 | 0.10 | 0.10 | 82 | 1015.8 |
| 20260505191917 | 14 | 218 | 4.8 | 12.9 | 0.00 | 0.10 | 0.10 | 83 | 1015.8 |
| 20260505191417 | 14 | 222 | 6.4 | 12.9 | 0.00 | 0.10 | 0.10 | 82 | 1015.8 |
| 20260505190916 | 14 | 237 | 4.8 | 12.9 | 0.00 | 0.10 | 0.10 | 82 | 1015.9 |
| 20260505190417 | 14 | 268 | 3.2 | 11.3 | 0.00 | 0.10 | 0.10 | 82 | 1015.8 |
| 20260505185913 | 14 | 245 | 4.8 | 11.3 | 0.00 | 0.10 | 0.10 | 82 | 1015.8 |
| 20260505185411 | 14 | 227 | 6.4 | 12.9 | 0.00 | 0.10 | 0.10 | 82 | 1015.7 |
| 20260505184911 | 14 | 247 | 6.4 | 12.9 | 0.00 | 0.10 | 0.10 | 82 | 1015.7 |
| 20260505184658 | 14 | 212 | 4.8 | 12.9 | 0.00 | 0.10 | 0.10 | 82 | 1015.7 |
| 20260505183911 | 14 | 235 | 4.8 | 9.7 | 0.00 | 0.10 | 0.10 | 83 | 1015.7 |
| 20260505183414 | 14 | 272 | 4.8 | 9.7 | 0.03 | 0.10 | 0.10 | 83 | 1015.6 |
| 20260505182912 | 14 | 265 | 3.2 | 9.7 | 0.03 | 0.10 | 0.10 | 84 | 1015.6 |
| 20260505182412 | 14 | 219 | 3.2 | 9.7 | 0.03 | 0.10 | 0.10 | 85 | 1015.6 |
| 20260505181911 | 14 | 219 | 3.2 | 9.7 | 0.03 | 0.10 | 0.10 | 85 | 1015.7 |
| 20260505181411 | 13 | 219 | 4.8 | 14.5 | 0.03 | 0.10 | 0.10 | 84 | 1015.6 |
| 20260505180907 | 13 | 235 | 4.8 | 14.5 | 0.03 | 0.10 | 0.10 | 85 | 1015.6 |
| 20260505180652 | 13 | 242 | 6.4 | 14.5 | 0.03 | 0.10 | 0.10 | 85 | 1015.6 |